Regional Weather Roundup
Issued by NWS Cleveland, OH

Home | Current Version | Previous Version | Text Only | Print | Product List | Glossary Off
Versions: 1 2 3 4 5 6 7 8 9 10 11 12 13 14 15 16 17 18 19 20 21 22 23 24 25 26 27 28 29 30 31 32 33 34 35 36 37 38 39 40 41 42 43 44 45 46 47 48 49 50

000
ASUS41 KCLE 051310
RWRCLE
OHIO REGIONAL WEATHER ROUNDUP
NATIONAL WEATHER SERVICE CLEVELAND, OH
900 AM EDT SUN JUL 05 2015

NOTE: "FAIR" INDICATES FEW OR NO CLOUDS BELOW 12,000 FEET WITH NO
SIGNIFICANT WEATHER AND/OR OBSTRUCTIONS TO VISIBILITY.

OHZ001>008-015>018-024>027-034-035-043-044-051400-
   NORTHWEST OHIO

CITY           SKY/WX    TMP DP  RH WIND       PRES   REMARKS
DEFIANCE       MOSUNNY   68  61  78 CALM      30.12S
FINDLAY        MOSUNNY   68  62  81 S5        30.12S
TOLEDO EXPRESS SUNNY     66  58  75 CALM      30.12S
TOLEDO EXEC    SUNNY     66  59  78 CALM      30.13S
LIMA           PTSUNNY   67  61  81 S5        30.13S
$$

OHZ009>014-019>023-028>033-038-089-051400-
   NORTHEAST OHIO

CITY           SKY/WX    TMP DP  RH WIND       PRES   REMARKS
CLE-HOPKINS    PTSUNNY   66  54  65 S7        30.16S
CLE-LAKEFRONT  PTSUNNY   68  53  58 S8        30.13S
CUY CO. ARPT   MOSUNNY   68  54  60 SE8       30.15S
LORAIN-ELYRIA  MOSUNNY   63  57  81 S5        30.15S HAZE
ASHTABULA      MOSUNNY   65  60  84 VRB3      30.17R
AKRON-CANTON   PTSUNNY   65  53  65 SE6       30.16R
WOOSTER        PTSUNNY   61  58  90 CALM      30.16S FOG
MANSFIELD      PTSUNNY   64  56  75 S3        30.15S
YOUNGSTOWN     PTSUNNY   64  56  75 E5        30.17R
$$

OHZ042-051>053-060>062-070>072-077>081-051400-
  SOUTHWEST OHIO

CITY           SKY/WX    TMP DP  RH WIND       PRES   REMARKS
CINC-COVINGTON CLOUDY    70  59  68 E7        30.10F
CINC-LUNKEN    CLOUDY    66  62  87 CALM      30.11S
HAMILTON       CLOUDY    69  62  78 CALM      30.12F
DAYTON         PTSUNNY   69  60  73 E5        30.13F
WRIGHT-PAT AFB PTSUNNY   65  61  85 NE2       30.12F
DAYTON GENERAL PTSUNNY   68  60  75 NE7       30.11F
WILMINGTON     CLOUDY    66  59  78 NE6       30.12F
$$

OHZ036-037-039>041-045>050-054>059-063>069-073>076-082>088-051400-
  CENTRAL AND SOUTHEAST OHIO

CITY           SKY/WX    TMP DP  RH WIND       PRES   REMARKS
COLUMBUS       PTSUNNY   69  57  65 E7        30.12F
OSU AIRPORT    MOSUNNY   67  58  72 CALM      30.14S
BOLTON FIELD   SUNNY     66  59  77 NE3       30.14S
RICKENBACK AFB PTSUNNY   64  59  82 E3        30.12F
NEWARK         PTSUNNY   66  59  78 CALM      30.14S
MARION         MOSUNNY   64  57  78 S6        30.14F
LANCASTER      PTSUNNY   66  61  84 CALM      30.13F
ZANESVILLE     NOT AVBL
NEW PHILLY     PTSUNNY   63  58  83 CALM      30.16S
$$


USA.gov is the U.S. government's official web portal to all federal, state and local government web resources and services.